DW4707 Campi Bisenzio - Firenze IT current weather conditions

sailwx.info

Wind from 248

Air temperature 18.3° C
Dewpoint 15.0° C

Last reported at 2014-Sep-16 22:47 UTC.
Time now 2014-Sep-16 23:31 UTC

Location: N 43°50' E 011°08'.
View on Google Maps.

See reports from other nearby stations

  
Tides and Currents Weather Stations Pressure Air Temp Water Temp Dewpoint Dewpoint Depression Visibility Wind Speed Wind Dir Waves Ship Positions
date/time (UTC)wind fromknots sea level pressurealtimeterstation pressurevisibilityair tempwater tempwave heightnotes
2014-Sep-16 22:47 248 18.3
2014-Sep-16 22:37 270 18.3
2014-Sep-16 22:27 202 18.9
2014-Sep-16 22:17 204 18.9
2014-Sep-16 22:07 202 19.4
2014-Sep-16 21:57 045 19.4
2014-Sep-16 21:47 202 19.4
2014-Sep-16 21:37 202 20.0
2014-Sep-16 21:27 202 20.0
2014-Sep-16 21:17 012 20.6
2014-Sep-16 21:07 20.6
2014-Sep-16 20:57 022 20.6
2014-Sep-16 20:47 014 20.6
2014-Sep-16 20:37 225 20.6
2014-Sep-16 20:27 045 21.1
2014-Sep-16 20:17 022 21.1
2014-Sep-16 20:07 023 21.1
2014-Sep-16 19:57 045 21.1
2014-Sep-16 19:47 022 21.7
2014-Sep-16 19:37 045 21.7
2014-Sep-16 19:27 022 21.7
2014-Sep-16 19:17 086 21.7
2014-Sep-16 19:07 087 21.7
2014-Sep-16 18:57 21.7
2014-Sep-16 18:47 045 21.7
2014-Sep-16 18:37 045 22.2
2014-Sep-16 18:27 045 22.2
2014-Sep-16 18:17 022 22.2
2014-Sep-16 18:07 090 22.2
2014-Sep-16 17:57 022 22.8
2014-Sep-16 17:47 22.8
2014-Sep-16 17:37 022 22.8
2014-Sep-16 17:27 045 22.8
2014-Sep-16 17:17 022 22.8
2014-Sep-16 17:07 020 23.3
2014-Sep-16 16:57 022 1 gusting 4 23.3
2014-Sep-16 16:47 068 1 gusting 1 23.3
2014-Sep-16 16:37 043 23.3
2014-Sep-16 16:27 23.3
2014-Sep-16 16:17 143 23.9
2014-Sep-16 16:07 23.9
2014-Sep-16 15:57 045 23.9
2014-Sep-16 15:47 049 23.3
2014-Sep-16 15:37 135 0 gusting 4 23.3
2014-Sep-16 15:27 22.8
2014-Sep-16 15:17 001 22.8
2014-Sep-16 15:07 022 22.8
2014-Sep-16 14:57 045 1 gusting 4 22.2
2014-Sep-16 14:47 038 22.2
2014-Sep-16 14:37 022 0 gusting 0 21.7
2014-Sep-16 14:27 045 21.7
2014-Sep-16 14:17 082 22.2
2014-Sep-16 14:07 22.2
2014-Sep-16 13:57 022 0 gusting 6 23.3
2014-Sep-16 13:37 022 0 gusting 1 26.7
2014-Sep-16 13:27 27.2
2014-Sep-16 13:17 026 0 gusting 1 27.8
2014-Sep-16 13:07 303 27.8
2014-Sep-16 12:57 045 28.3
2014-Sep-16 12:47 004 28.3
2014-Sep-16 12:37 28.3
2014-Sep-16 12:27 022 27.8
2014-Sep-16 12:17 27.8
2014-Sep-16 12:07 357 27.8
2014-Sep-16 11:57 28.3
2014-Sep-16 11:47 009 27.8
2014-Sep-16 11:37 202 27.8
2014-Sep-16 11:27 022 27.8
2014-Sep-16 11:17 022 27.8
2014-Sep-16 11:07 044 27.8
2014-Sep-16 10:57 27.8
2014-Sep-16 10:47 045 26.7
2014-Sep-16 10:37 26.1
2014-Sep-16 10:27 26.7
2014-Sep-16 10:17 343 25.6
2014-Sep-16 10:07 149 26.1
2014-Sep-16 09:57 022 25.6
2014-Sep-16 09:47 025 24.4
2014-Sep-16 09:37 040 23.9
2014-Sep-16 09:27 022 23.3
2014-Sep-16 09:17 022 23.9
2014-Sep-16 09:07 009 23.3
2014-Sep-16 08:57 022 23.3
2014-Sep-16 08:47 156 23.3
2014-Sep-16 08:37 094 23.3
2014-Sep-16 08:27 045 22.2
2014-Sep-16 08:17 045 21.7
2014-Sep-16 08:07 029 20.6
2014-Sep-16 07:57 112 20.6
2014-Sep-16 07:47 045 20.6
2014-Sep-16 07:37 225 20.0
2014-Sep-16 07:27 045 19.4
2014-Sep-16 07:17 205 18.9
2014-Sep-16 07:07 319 18.3
2014-Sep-16 06:57 180 18.3
2014-Sep-16 06:47 292 18.3
2014-Sep-16 06:37 341 18.3
2014-Sep-16 06:27 023 18.3
2014-Sep-16 06:17 338 17.8
2014-Sep-16 06:07 270 17.8
2014-Sep-16 05:57 292 17.8
2014-Sep-16 05:47 180 17.8
2014-Sep-16 05:37 355 17.8
2014-Sep-16 05:27 315 17.8
2014-Sep-16 05:17 315 17.2
2014-Sep-16 05:07 337 17.2
2014-Sep-16 04:57 275 17.2
2014-Sep-16 04:47 248 17.2
2014-Sep-16 04:37 135 17.2
2014-Sep-16 04:27 112 17.2
2014-Sep-16 04:17 248 17.2
2014-Sep-16 04:07 197 17.8
2014-Sep-16 03:57 202 17.8
2014-Sep-16 03:47 180 17.2
2014-Sep-16 03:37 180 17.2
2014-Sep-16 03:27 180 17.8
2014-Sep-16 03:17 068 17.8
2014-Sep-16 03:07 076 17.8
2014-Sep-16 02:57 158 17.8
2014-Sep-16 02:47 158 17.8
2014-Sep-16 02:37 068 17.8
2014-Sep-16 02:27 158 17.8
2014-Sep-16 02:17 158 17.8
2014-Sep-16 02:07 135 17.8
2014-Sep-16 01:57 138 17.8
2014-Sep-16 01:47 18.3
2014-Sep-16 01:37 180 18.3
2014-Sep-16 01:27 180 18.3
2014-Sep-16 01:17 180 18.3
2014-Sep-16 01:07 180 18.3
2014-Sep-16 00:57 022 18.3
2014-Sep-16 00:47 022 18.3
2014-Sep-16 00:37 180 18.3
2014-Sep-16 00:27 202 18.3
2014-Sep-16 00:17 202 18.3
2014-Sep-16 00:07 202 18.3
2014-Sep-15 23:57 202 18.3
2014-Sep-15 23:47 202 18.3
2014-Sep-15 23:37 202 18.3
2014-Sep-15 23:27 201 18.3
2014-Sep-15 23:17 158 18.3
2014-Sep-15 23:07 158 18.3
2014-Sep-15 22:57 158 18.9
2014-Sep-15 22:47 158 18.3
2014-Sep-15 22:37 158 18.3
2014-Sep-15 22:27 158 18.9
2014-Sep-15 22:17 112 18.9
2014-Sep-15 22:07 068 18.9
2014-Sep-15 21:57 068 18.9
2014-Sep-15 21:47 045 18.9
2014-Sep-15 21:37 112 18.9
2014-Sep-15 21:27 112 19.4
2014-Sep-15 21:17 022 19.4
2014-Sep-15 21:07 022 19.4
2014-Sep-15 20:57 022 20.0
2014-Sep-15 20:47 022 20.0
2014-Sep-15 20:37 022 20.0
2014-Sep-15 20:27 022 20.0
2014-Sep-15 20:17 338 20.0
2014-Sep-15 20:07 292 20.0
2014-Sep-15 19:57 270 20.0
2014-Sep-15 19:47 270 20.0
2014-Sep-15 19:37 270 20.6
2014-Sep-15 19:27 225 20.6
2014-Sep-15 19:17 225 20.6
2014-Sep-15 19:07 225 20.6
2014-Sep-15 18:57 225 21.1
2014-Sep-15 18:47 225 21.1
2014-Sep-15 18:37 135 21.7
2014-Sep-15 18:27 135 21.7
2014-Sep-15 18:17 158 21.7
2014-Sep-15 18:07 158 22.2
2014-Sep-15 17:57 158 22.2
2014-Sep-15 17:47 158 22.2
2014-Sep-15 17:37 158 22.8
2014-Sep-15 17:27 112 22.8
2014-Sep-15 17:17 045 23.3
2014-Sep-15 17:07 139 23.3
2014-Sep-15 16:57 23.9
2014-Sep-15 16:47 23.9
2014-Sep-15 16:37 24.4
2014-Sep-15 16:27 356 24.4
2014-Sep-15 16:17 022 24.4
2014-Sep-15 16:07 022 25.0
2014-Sep-15 15:57 25.0
2014-Sep-15 15:47 25.0
2014-Sep-15 15:37 344 25.0
2014-Sep-15 15:27 236 25.0
2014-Sep-15 15:17 045 25.0
2014-Sep-15 15:07 022 25.6
2014-Sep-15 14:57 25.6
2014-Sep-15 14:47 25.0
2014-Sep-15 14:37 169 25.0
2014-Sep-15 14:27 081 25.0
2014-Sep-15 14:17 045 25.0
2014-Sep-15 14:07 338 25.0
2014-Sep-15 13:57 343 25.6
2014-Sep-15 13:47 022 25.6
2014-Sep-15 13:37 180 25.6
2014-Sep-15 13:27 034 25.6
2014-Sep-15 13:17 045 25.6
2014-Sep-15 13:07 022 25.6
2014-Sep-15 12:57 087 25.6
2014-Sep-15 12:47 045 25.6
2014-Sep-15 12:37 090 25.0
2014-Sep-15 12:27 271 25.0
2014-Sep-15 12:17 135 25.0
2014-Sep-15 12:07 158 25.6
2014-Sep-15 11:57 032 25.6
2014-Sep-15 11:47 045 25.6
2014-Sep-15 11:37 25.6
2014-Sep-15 11:27 022 25.6
2014-Sep-15 11:17 022 0 gusting 0 25.0
2014-Sep-15 11:07 068 25.6
2014-Sep-15 10:57 090 25.6
2014-Sep-15 10:47 112 25.0
2014-Sep-15 10:37 045 0 gusting 0 23.9
2014-Sep-15 10:27 123 25.0
2014-Sep-15 10:17 022 0 gusting 0 25.0
2014-Sep-15 10:07 022 24.4
2014-Sep-15 09:57 105 25.0
2014-Sep-15 09:47 202 24.4
2014-Sep-15 09:37 24.4
2014-Sep-15 09:27 039 23.9
2014-Sep-15 09:17 068 22.8
2014-Sep-15 09:07 022 23.3
2014-Sep-15 08:57 079 22.8
2014-Sep-15 08:47 180 22.2
2014-Sep-15 08:37 022 21.1
2014-Sep-15 08:27 148 20.0
2014-Sep-15 08:17 135 20.0
2014-Sep-15 08:07 022 18.9
2014-Sep-15 07:57 045 18.9
2014-Sep-15 07:47 022 18.3
2014-Sep-15 07:37 045 18.3
2014-Sep-15 07:27 055 18.3
2014-Sep-15 07:17 292 18.3
2014-Sep-15 07:07 135 18.3
2014-Sep-15 06:57 045 18.3
2014-Sep-15 06:47 068 18.3
2014-Sep-15 06:37 292 18.3
2014-Sep-15 06:27 330 17.8
2014-Sep-15 06:17 135 17.2
2014-Sep-15 06:07 068 16.1
2014-Sep-15 05:57 158 15.6
2014-Sep-15 05:47 090 15.0
2014-Sep-15 05:37 158 15.0
2014-Sep-15 05:27 202 15.0
2014-Sep-15 05:17 202 15.0
2014-Sep-15 05:07 180 15.0
2014-Sep-15 04:57 180 15.0
2014-Sep-15 04:47 180 15.0
2014-Sep-15 04:37 202 15.0
2014-Sep-15 04:27 202 15.0
2014-Sep-15 04:17 202 15.0
2014-Sep-15 04:07 202 15.0
2014-Sep-15 03:57 202 15.0
2014-Sep-15 03:47 211 15.0
2014-Sep-15 03:37 225 15.0
2014-Sep-15 03:27 225 15.0
2014-Sep-15 03:17 225 15.6
2014-Sep-15 03:07 180 15.6
2014-Sep-15 02:57 180 15.6
2014-Sep-15 02:47 180 15.6
2014-Sep-15 02:37 158 15.6
2014-Sep-15 02:27 135 15.6
2014-Sep-15 02:17 112 15.6
2014-Sep-15 02:07 158 15.6
2014-Sep-15 01:57 180 15.6
2014-Sep-15 01:47 180 15.6
2014-Sep-15 01:37 180 16.1
2014-Sep-15 01:27 180 16.1
2014-Sep-15 01:17 068 16.7
2014-Sep-15 01:07 068 16.7
2014-Sep-15 00:57 135 16.7
2014-Sep-15 00:47 180 16.7
2014-Sep-15 00:37 158 16.7
2014-Sep-15 00:27 158 16.7
2014-Sep-15 00:17 158 16.7
2014-Sep-15 00:07 158 17.2
2014-Sep-14 23:57 135 17.2
2014-Sep-14 23:47 022 17.2
2014-Sep-14 23:37 158 17.2
2014-Sep-14 23:27 135 17.8
2014-Sep-14 23:17 112 18.3
2014-Sep-14 23:07 045 18.3